User: anonymous   Login
Location: Nantong Television Tower
(32.0188°N, 120.8512°E)
Time: 04:10:06
(UTC+08:00)
Language:

ATLAS 3B CENTAUR R/B - Orbit

View from above orbital plane
View from above orbital plane
View from above satellite
View from above satellite

Ground track
Ground track

The orbit data is extracted from the following two-line orbital elements,

1 28118U 03057B   15148.39713235  .00069432  00000-0  12352-2 0  9996
2 28118 028.1315 140.6307 3604626 176.5429 347.7079 08.28000469223140
Epoch (UTC): 28 May 2015 09:31:52
Eccentricity: 0.3604626
inclination: 28.1315°
perigee height: 222 km
apogee height: 7663 km
right ascension of ascending node: 140.6307°
argument of perigee: 176.5429°
revolutions per day: 8.28000469
mean anomaly at epoch: 347.7079°
orbit number at epoch: 22314

The dashed part of the orbit path shows where the satellite is in the earth's shadow,  

DLR